Location: Borbetomagus
(49.6328°N, 8.3592°E)
Time: 07:07:04
(UTC+00:00)

Meteor 1-14 Rocket - Pass Details

Date: 19 May 2025
Orbit: 833 x 917 km, 81.3° (Epoch: 14 June)

Event Time Altitude Azimuth Distance (km) Brightness Sun altitude
Rises 21:12:17 0° 348° (NNW) 3,408 8.8 -14.6°
Reaches altitude 10° 21:14:42 10° 350° (N) 2,476 7.8 -14.8°
Maximum altitude 21:20:20 80° 77° (ENE) 875 4.2 -15.3°
Enters shadow 21:23:59 23° 163° (SSE) 1,747 5.2 -15.6°
